Tracking 31027 objects as of 18-Jul-2025
HD Live streaming from Space Station
objects crossing your sky now

OBJECT F

Track OBJECT F now!
10-day predictions


NORAD ID: 60750
Int'l Code: 2024-153F
Perigee: 487.9 km
Apogee: 505.7 km
Inclination: 97.6 °
Period: 94.4 minutes
Semi major axis: 6867 km
RCS: Unknown
Launch date: August 29, 2024
Source: People's Republic of China (PRC)
Launch site: Yellow Sea Launch Area, China (YSLA)
Your satellite tracking list
Your tracking list is empty




NASA's NSSDC Master Catalog

Two Line Element Set (TLE):
1 60750U 24153F   25199.62144873  .00013044  00000-0  51836-3 0  9992
2 60750  97.6363 325.7247 0012938 251.4624 108.5208 15.25370226 49089
Source of the keplerian elements: AFSPC